Theta_e
301 301 301 301 301 301 301 301 301 302 302 302 302 303 303 304 304 304 305 305 306 306 307 308 310 312 313 313 313 314 317 318 317 315 313 311 309 308 307 306 305 305 304 302 301
301 301 301 301 301 301 301 301 301 302 302 302 303 303 304 304 304 304 304 304 305 306 307 309 310 311 312 313 313 317 318 316 315 314 312 309 308 308 308 307 307 305 302 301 299
301 301 301 301 301 301 301 301 301 301 302 302 303 303 303 304 306 303 304 304 305 305 306 307 308 310 312 312 312 315 316 314 312 310 308 306 306 307 307 307 306 304 302 300 298
301 301 301 301 301 301 301 301 301 301 302 302 302 303 304 306 312 303 303 303 304 305 305 306 309 311 312 312 311 313 312 311 308 307 306 307 306 305 306 304 303 301 299 298 297
301 301 300 300 300 300 301 301 301 301 301 302 302 303 304 305 303 302 303 303 303 304 306 308 310 311 312 311 311 311 308 306 306 306 306 306 306 305 304 302 301 299 298 297 296
301 301 300 300 300 300 300 301 301 301 301 301 302 303 304 309 303 302 302 302 303 304 304 306 308 309 307 306 310 307 306 306 306 305 306 306 305 305 302 302 301 299 297 296 295
301 301 300 300 300 300 300 301 301 301 301 301 302 303 304 305 302 301 302 302 303 305 304 305 305 307 306 305 305 305 306 306 306 305 306 305 305 303 301 301 301 299 297 296 295
301 300 300 300 300 300 300 300 300 301 301 302 302 303 303 302 302 301 301 302 303 303 304 304 304 305 306 304 305 307 307 307 305 305 304 304 306 302 302 302 301 299 298 296 295
301 300 300 300 300 300 300 300 300 301 301 301 301 304 303 301 301 301 301 302 302 302 302 303 304 304 305 308 308 307 309 308 304 304 304 304 305 302 302 302 301 299 298 297 296
300 300 300 300 299 299 299 300 300 300 301 301 302 305 301 302 301 301 301 301 302 302 304 306 307 307 307 309 309 308 308 307 306 304 305 304 304 302 302 302 301 300 299 298 296
300 300 300 299 299 299 299 300 301 302 301 305 304 303 302 301 301 302 301 302 302 305 307 306 309 308 307 306 306 308 307 306 305 303 304 305 304 303 301 301 301 300 299 298 296
299 300 299 299 299 299 299 303 305 307 305 302 302 302 301 301 302 302 302 305 305 307 306 308 309 305 305 305 306 307 307 306 304 303 304 304 304 303 302 302 301 300 299 297 296
299 299 299 298 298 298 299 301 303 305 309 304 302 304 303 302 303 304 302 303 305 305 306 309 307 303 305 305 305 306 307 305 307 303 304 305 305 302 301 299 299 298 297 296 295
300 299 298 298 298 298 299 300 303 304 315 308 304 303 303 303 304 302 302 303 304 305 307 306 304 304 304 305 305 305 304 305 304 305 307 304 311 304 303 300 299 298 297 296 294
301 299 298 298 299 298 301 300 302 305 327 308 303 302 302 304 303 303 301 302 305 304 304 305 304 304 305 305 304 307 304 304 304 304 304 304 304 306 304 301 300 298 297 295 293
303 299 298 297 298 300 300 301 301 318 324 306 303 304 303 303 303 302 304 302 303 304 305 303 302 304 304 303 304 303 303 303 304 304 308 306 304 307 303 303 302 299 296 295 293
307 300 298 298 298 299 299 300 313 319 310 308 305 304 304 303 303 303 304 303 305 307 305 304 303 302 303 303 303 302 303 315 314 309 312 302 302 305 304 303 303 300 296 294 292
309 301 298 298 298 299 300 309 317 315 313 303 305 304 305 304 304 303 303 304 304 304 306 306 305 303 303 304 305 303 304 319 316 314 309 299 304 304 303 301 301 299 296 293 292
308 304 300 297 297 298 301 309 316 315 307 305 303 308 306 303 304 303 303 304 304 303 308 306 306 300 301 301 302 303 301 301 305 296 304 306 303 301 299 299 297 296 294 293 292
306 303 301 297 297 298 305 308 315 311 305 305 315 312 311 307 305 304 304 305 303 304 302 305 305 301 299 300 300 301 299 302 305 309 309 306 302 304 299 299 297 296 294 293 292
306 303 300 298 297 299 304 308 306 305 305 307 315 306 311 306 306 305 309 304 303 303 301 303 307 301 300 301 303 300 302 300 301 303 310 311 308 303 303 301 299 296 295 294 292
305 303 299 297 299 301 303 305 304 303 303 305 308 308 309 306 309 307 307 304 302 301 302 302 306 303 303 298 297 301 302 302 310 306 300 302 306 298 301 302 300 297 295 293 292
305 299 296 296 301 303 301 302 301 303 303 303 305 305 304 306 308 308 306 297 301 301 302 301 307 307 303 298 296 299 300 300 298 302 303 307 307 296 296 298 299 297 294 292 291
305 297 295 296 299 303 302 301 301 301 304 303 303 302 303 304 301 305 303 298 298 301 298 299 306 314 315 309 302 298 299 300 300 305 306 304 307 298 297 298 298 296 293 291 290
305 299 297 297 299 301 302 301 301 302 300 302 301 305 306 303 302 304 299 297 298 299 298 301 305 298 298 296 298 300 300 300 299 300 304 305 304 303 300 297 295 294 292 291 290
302 300 297 303 300 299 302 301 300 302 301 302 306 303 304 305 307 304 300 301 302 298 299 297 304 297 298 296 294 295 297 299 300 300 300 302 301 300 301 296 294 293 291 290 290
308 306 306 305 301 300 301 301 301 302 301 304 303 303 303 306 301 302 301 301 302 301 300 299 300 303 308 294 294 300 294 296 299 299 300 301 302 301 297 297 294 292 291 290 290
Wind_Speed
6 5 4 3 3 3 4 4 4 5 5 6 6 6 6 6 6 3 6 6 4 5 5 7 5 6 8 9 8 1 5 9 8 12 10 9 10 7 11 16 19 11 13 9 12
7 6 4 4 4 5 5 5 5 5 6 7 10 11 10 11 12 8 6 7 5 5 5 4 2 4 5 6 6 4 7 8 5 12 11 9 11 11 11 14 14 13 12 11 12
8 6 5 5 5 6 5 5 5 6 7 8 7 5 3 2 5 6 5 4 4 3 4 5 6 4 9 9 6 5 6 15 12 14 14 14 12 6 15 11 10 10 10 11 13
9 8 6 6 6 7 6 6 7 7 8 7 6 4 4 4 1 2 3 3 3 3 3 2 1 3 5 6 5 14 12 9 10 10 14 14 13 17 13 9 9 10 9 10 13
10 9 8 7 7 7 7 7 7 7 8 8 7 5 6 5 3 2 3 3 4 3 3 5 5 9 8 15 22 19 16 14 13 12 13 15 12 14 13 9 8 9 10 11 12
12 10 10 9 9 8 7 7 7 8 8 8 6 5 5 2 2 2 4 4 5 3 2 3 5 14 15 7 6 14 20 17 11 11 18 17 11 0 5 6 7 8 10 10 11
13 11 11 9 10 9 8 8 8 8 7 6 5 6 5 5 5 4 5 6 6 8 13 16 12 2 10 16 19 22 16 14 7 9 10 15 10 6 4 11 10 9 9 9 9
14 13 12 11 11 10 9 9 9 8 8 8 7 5 4 8 6 5 6 8 9 10 12 13 14 16 7 21 9 7 10 8 5 6 6 4 7 6 9 13 11 9 8 7 7
16 15 14 13 12 11 10 10 9 8 7 7 7 6 4 7 5 6 5 8 8 9 10 10 7 8 10 10 6 6 7 7 6 1 4 10 8 7 10 11 11 9 7 6 6
18 17 16 16 15 13 11 10 8 7 6 5 5 4 6 4 6 6 7 8 5 8 4 3 4 5 5 7 5 10 7 6 8 2 8 8 9 11 11 12 10 8 6 5 4
20 19 18 17 16 16 16 13 7 2 6 2 1 4 8 9 7 4 6 7 8 3 2 1 4 6 11 1 3 3 6 10 9 3 4 8 10 11 12 11 10 8 6 3 1
24 23 21 19 18 18 20 9 9 5 8 5 6 6 10 9 3 4 7 1 3 3 2 3 3 5 4 3 5 7 11 8 6 1 4 8 9 9 13 12 10 9 7 3 1
27 24 22 21 20 22 25 19 7 11 3 2 4 4 5 5 2 2 5 2 3 4 2 2 6 7 6 7 9 3 4 9 5 7 1 8 9 13 12 11 10 9 7 4 1
29 26 25 22 18 22 25 19 12 9 2 5 4 3 3 5 2 4 6 4 2 5 5 4 6 6 7 6 1 5 1 6 10 10 3 6 4 14 16 14 15 13 11 7 3
31 29 27 27 14 23 16 17 14 6 3 7 4 5 5 3 6 2 4 2 4 7 2 4 7 7 7 4 1 4 3 4 2 2 2 8 5 1 16 16 17 18 13 8 4
32 32 31 32 23 21 17 20 12 2 7 5 4 6 6 2 3 4 3 5 5 5 9 5 2 2 4 7 2 13 9 7 3 1 4 8 7 8 11 21 17 20 15 11 6
31 35 36 33 22 20 20 19 2 5 1 6 6 7 8 6 4 6 8 8 6 6 6 5 4 2 8 9 7 3 7 2 2 3 4 3 5 11 15 4 19 20 17 12 8
32 34 37 35 26 23 29 4 9 6 6 4 5 10 6 8 5 7 7 9 9 5 9 9 5 12 10 2 3 11 3 3 5 4 1 3 7 4 2 9 9 17 16 13 9
32 29 33 36 28 30 17 9 9 7 9 13 10 5 4 5 4 8 10 6 12 14 5 8 4 4 2 2 1 5 6 3 4 2 2 6 5 5 8 11 15 17 17 14 11
42 35 25 38 30 34 7 16 5 6 10 8 8 7 8 8 10 12 13 8 6 13 2 6 6 2 4 3 3 2 5 3 2 4 5 5 6 9 13 18 16 20 21 17 13
45 18 17 35 30 16 11 10 6 8 9 10 5 6 6 9 11 7 7 4 9 10 5 7 3 5 5 11 12 5 4 4 3 3 4 4 4 2 14 18 21 25 23 19 15
36 6 22 38 13 7 13 6 12 11 10 5 5 6 8 11 7 11 13 1 13 15 8 3 3 5 5 3 3 7 6 9 4 6 2 2 8 1 3 13 21 23 22 19 16
23 14 33 41 12 11 3 20 11 10 9 8 8 3 4 8 5 5 8 2 9 11 9 9 4 4 2 2 3 7 12 8 2 2 8 4 5 2 6 9 18 22 23 20 18
24 5 9 23 25 22 16 10 14 12 9 9 6 6 6 3 1 7 8 3 4 8 2 7 2 4 9 3 6 7 15 19 10 5 6 17 11 6 9 11 18 22 23 21 20
24 8 15 11 18 15 21 15 23 11 9 14 3 6 10 5 4 5 4 5 3 6 2 4 5 3 3 3 3 4 8 18 19 23 12 20 18 20 15 14 26 26 24 23 21
19 10 14 3 30 23 16 24 31 16 14 9 6 13 7 9 9 11 9 7 6 9 6 3 3 2 3 4 5 5 12 16 23 18 24 25 22 6 7 18 20 28 28 27 27
23 34 22 18 21 21 28 30 31 25 18 25 18 13 13 7 13 15 6 15 13 8 9 8 7 4 5 3 6 8 20 25 18 13 22 20 29 5 7 20 28 32 37 35 32
Wind_Direction
246 255 253 235 218 192 169 155 156 150 147 139 130 124 116 107 97 96 54 66 70 68 83 72 60 86 80 77 70 90 154 130 135 141 131 139 115 86 90 75 65 70 62 31 11
240 242 248 224 213 194 179 162 157 154 152 140 124 119 112 98 87 73 53 57 57 63 78 75 70 97 70 60 45 7 122 111 105 113 129 124 120 126 119 97 85 70 52 40 29
237 236 228 221 207 197 185 170 162 161 158 155 146 141 151 135 81 19 32 50 70 74 90 109 99 84 77 73 41 27 112 125 104 109 121 115 117 128 120 87 67 73 51 41 38
225 222 214 210 211 198 191 179 170 166 163 161 161 149 145 134 118 1 35 38 56 72 90 105 94 84 79 77 89 110 105 109 112 109 130 117 107 76 75 98 90 79 70 57 48
227 220 207 204 205 202 197 182 177 167 165 163 161 149 116 91 82 56 55 60 58 62 87 104 106 100 95 100 92 106 108 98 104 111 118 119 96 99 93 103 95 90 79 64 55
224 219 212 200 196 199 196 190 180 170 170 168 164 158 140 150 126 90 74 75 73 90 158 125 96 112 92 74 43 125 116 108 102 113 128 118 118 82 92 131 118 105 86 69 58
224 220 217 205 196 193 193 188 182 175 172 169 164 157 143 160 153 113 96 92 98 100 105 109 120 124 111 100 111 120 113 112 85 145 143 138 78 59 78 150 137 118 97 80 64
221 217 211 204 201 191 188 186 181 178 173 166 165 149 111 146 139 135 121 104 103 105 112 109 104 99 87 120 117 128 144 149 92 180 173 223 114 79 133 145 144 136 119 96 67
216 218 212 203 201 191 187 182 183 178 173 170 165 135 120 153 136 149 140 124 117 116 107 103 89 86 128 136 126 196 177 163 143 317 176 215 119 135 156 158 156 145 131 110 83
209 213 212 203 196 190 182 174 168 169 160 156 154 135 156 175 152 142 146 140 121 119 83 61 91 124 153 197 188 186 157 167 151 97 201 184 137 157 172 174 167 155 145 124 79
213 212 209 209 195 187 176 153 145 178 190 130 166 103 140 146 140 143 144 125 124 89 182 59 201 177 178 349 307 221 171 141 123 127 148 171 163 170 174 183 181 173 165 138 68
209 212 206 204 199 190 185 193 204 182 119 102 97 116 146 141 125 134 147 194 183 155 169 185 175 115 111 129 142 171 152 127 106 116 222 176 186 187 191 194 197 187 177 171 92
212 210 206 202 201 199 199 207 202 160 97 112 139 131 158 157 117 116 142 135 137 147 190 215 119 142 156 137 130 87 209 161 139 148 162 185 224 202 200 197 196 198 189 187 156
215 208 202 199 204 209 213 208 194 181 244 163 192 204 155 155 148 148 140 130 109 130 108 86 148 158 156 143 259 171 105 139 141 181 231 204 286 197 193 203 201 193 195 189 181
216 207 203 193 195 200 215 202 190 177 245 121 152 172 156 181 130 91 133 73 155 123 240 98 155 160 168 88 20 101 126 86 96 226 299 194 255 17 178 210 207 199 194 193 186
215 208 201 195 205 207 195 184 167 81 234 145 142 167 151 145 125 126 130 95 122 97 67 77 46 354 75 72 92 135 120 84 77 315 250 217 216 200 188 222 206 195 195 190 187
217 208 203 198 202 194 182 160 78 194 153 184 172 176 184 159 150 188 172 164 173 147 162 135 136 105 156 101 124 200 168 142 218 199 253 139 216 263 194 209 203 190 193 190 186
217 206 203 201 195 187 173 184 217 173 196 121 137 154 178 158 165 176 175 190 215 195 152 169 197 178 168 279 186 193 213 244 257 218 123 167 230 243 240 159 187 186 190 189 185
209 199 205 197 193 181 177 211 206 189 154 143 124 135 191 192 187 178 201 222 198 208 189 185 130 101 87 113 355 173 215 54 97 89 280 214 255 204 170 184 186 186 191 195 192
192 196 207 194 189 178 202 218 209 135 131 171 156 181 164 183 175 193 189 204 194 199 278 155 113 209 116 137 88 263 131 138 207 236 249 196 257 242 197 202 197 200 202 199 196
187 181 211 191 182 193 210 218 195 186 163 169 175 136 162 169 193 195 194 165 184 174 197 157 144 140 165 205 179 161 200 208 287 221 251 286 234 160 199 201 199 202 200 199 198
175 183 181 178 173 192 215 181 203 173 210 214 160 116 160 163 171 200 198 309 169 156 177 147 86 162 187 74 2 250 228 182 218 188 235 316 262 182 158 188 196 195 194 195 194
175 161 175 170 200 209 208 208 212 168 191 188 170 150 150 158 148 214 177 125 172 178 158 177 174 135 163 187 182 213 208 224 73 7 202 221 247 176 182 195 191 187 186 186 187
160 131 157 201 224 199 186 209 202 209 199 185 142 119 125 116 37 159 153 144 183 190 116 149 157 216 235 65 122 196 198 201 194 212 228 229 252 194 197 190 186 189 187 187 189
183 172 175 187 212 204 189 185 198 190 223 180 159 204 157 127 113 163 125 130 164 166 149 184 201 174 235 203 210 234 206 202 207 222 217 254 225 239 201 189 194 189 184 186 190
170 147 171 176 183 185 191 210 199 189 162 204 214 185 210 157 180 179 140 176 186 173 182 180 165 145 252 208 230 244 244 237 225 228 245 254 263 212 217 196 187 189 187 189 193
198 196 176 184 182 183 203 200 202 186 208 206 193 165 203 181 101 144 122 151 139 173 159 161 147 155 259 6 313 255 223 225 220 209 222 230 241 147 180 186 193 192 196 199 205